Location: Morisset
(33.1080°S, 151.4871°E)
Time: 08:24:17
(UTC+00:00)

NOSS 2-3 (D) - Pass Details

Date: 29 October 2020
Orbit: 572 x 1640 km, 63.4° (Epoch: 23 November)

Event Time Altitude Azimuth Distance (km) Brightness Sun altitude
Rises 18:16:40 0° 210° (SSW) 3,964 7.6 -8.7°
Reaches altitude 10° 18:19:42 10° 208° (SSW) 2,825 6.9 -8.1°
Maximum altitude 18:26:10 80° 121° (ESE) 846 4.4 -6.9°
Drops below altitude 10° 18:31:05 10° 33° (NNE) 2,166 6.5 -5.9°
Sets 18:33:09 0° 32° (NNE) 2,981 7.2 -5.5°
